EW7772 Weather Reports


time (UTC)temp
C
wind
direction
speed
KPH
gust
KPH
rain 1hr
cm
rain 24hr
cm
rain mn
cm
humidity
%
barometer
mb
20260507030111 8 296 0.0 0.0 0.03 0.99 0.05 92 1010.9
20260507024613 8 296 0.0 0.0 0.03 0.99 0.05 92 1010.9
20260507023057 8 296 0.0 0.0 0.00 0.99 0.03 92 1010.8
20260507021559 8 296 0.0 0.0 0.00 0.99 0.03 92 1010.8
20260507014559 9 296 0.0 0.0 0.00 0.99 0.03 92 1010.6
20260507013101 9 296 0.0 0.0 0.00 0.99 0.03 92 1010.5
20260507011557 9 296 0.0 0.0 0.00 0.99 0.03 93 1010.4
20260507010053 9 296 0.0 0.0 0.00 0.99 0.03 93 1010.4
20260507004552 9 296 0.0 0.0 0.00 0.99 0.03 93 1010.4
20260507003051 9 296 0.0 0.0 0.00 0.99 0.03 92 1010.4
20260507001551 9 296 0.0 0.0 0.00 0.99 0.03 92 1010.4
20260507000050 9 296 0.0 1.6 0.00 0.99 0.03 91 1010.5
20260506234555 9 288 0.0 3.2 0.00 0.99 0.03 91 1010.6
20260506233052 9 288 0.0 6.4 0.00 0.99 0.03 90 1010.6
20260506231553 9 329 1.6 9.7 0.00 0.99 0.03 90 1010.5
20260506230044 10 360 0.0 4.8 0.00 0.99 0.03 90 1010.4
20260506224543 10 288 0.0 6.4 0.03 0.99 0.03 91 1010.4
20260506223041 10 314 0.0 3.2 0.03 0.99 0.03 91 1010.3
20260506221539 10 260 0.0 9.7 0.03 0.99 0.03 91 1010.0
20260506220037 10 297 1.6 8.0 0.03 0.99 0.03 91 1009.9
20260506214536 10 317 0.0 3.2 0.00 0.97 0.97 93 1009.9
20260506213038 10 299 0.0 0.0 0.00 0.97 0.97 94 1009.8
20260506211534 10 299 0.0 0.0 0.00 0.97 0.97 94 1009.7
20260506210035 10 299 0.0 0.0 0.00 0.97 0.97 94 1009.7
20260506204535 10 299 0.0 0.0 0.00 0.99 0.97 94 1009.6
20260506203038 10 299 0.0 0.0 0.00 0.99 0.97 94 1009.6
20260506201536 10 299 0.0 0.0 0.00 0.99 0.97 94 1009.6
20260506200030 10 299 0.0 0.0 0.00 0.99 0.97 94 1009.4
20260506194529 10 299 0.0 0.0 0.00 0.99 0.97 94 1009.3
20260506193027 10 299 0.0 0.0 0.03 0.99 0.97 94 1009.1
20260506191526 10 299 0.0 0.0 0.03 0.99 0.97 93 1008.8
20260506190023 10 299 0.0 0.0 0.03 0.99 0.97 93 1008.6
20260506184523 10 299 0.0 4.8 0.05 0.99 0.97 92 1008.5
20260506183022 10 300 0.0 3.2 0.05 0.99 0.94 92 1008.3
20260506181522 10 279 0.0 4.8 0.05 0.99 0.94 92 1008.1
20260506180026 10 292 0.0 4.8 0.05 0.99 0.94 91 1007.9
20260506174522 11 306 0.0 3.2 0.05 0.97 0.91 93 1007.9
20260506173022 11 293 0.0 0.0 0.05 0.94 0.89 94 1007.6
20260506171520 11 293 0.0 0.0 0.05 0.91 0.89 94 1007.6
20260506170021 11 293 0.0 1.6 0.05 0.91 0.89 94 1007.5
20260506164519 11 293 0.0 4.8 0.08 0.91 0.89 93 1007.3
20260506163025 11 294 0.0 3.2 0.05 0.89 0.86 93 1007.2
20260506161518 11 295 0.0 3.2 0.05 0.89 0.84 92 1007.1
20260506160017 11 290 0.0 4.8 0.03 0.86 0.81 92 1007.0
20260506154517 12 313 0.0 6.4 0.00 0.84 0.79 93 1006.8
20260506153016 12 304 0.0 9.7 0.05 0.84 0.79 93 1006.5
20260506151516 12 307 0.0 3.2 0.41 0.84 0.79 93 1006.6
20260506150016 11 306 0.0 3.2 0.76 0.84 0.79 93 1006.6
20260506144515 11 306 0.0 6.4 0.79 0.86 0.79 92 1006.4
20260506143023 11 293 0.0 4.8 0.71 0.79 0.71 86 1006.3
20260506141515 13 278 0.0 9.7 0.38 0.43 0.38 82 1006.1
20260506140014 16 75 0.0 1.6 0.05 0.10 0.05 78 1005.6
20260506134513 16 75 0.0 1.6 0.00 0.23 0.00 69 1005.5
20260506133012 17 71 0.0 1.6 0.00 0.23 0.00 70 1005.3
20260506131510 17 70 0.0 1.6 0.00 0.23 0.00 71 1005.3
20260506130009 16 70 0.0 1.6 0.00 0.23 0.00 71 1005.3
20260506124507 16 70 0.0 4.8 0.00 0.23 0.00 75 1005.5
20260506123007 16 81 0.0 1.6 0.00 0.23 0.00 72 1005.5
20260506121509 16 307 0.0 1.6 0.00 0.23 0.00 70 1005.5
20260506120008 16 307 0.0 1.6 0.00 0.23 0.00 71 1005.4
20260506114505 16 307 0.0 0.0 0.00 0.23 0.00 71 1005.6
20260506113006 16 307 0.0 1.6 0.00 0.23 0.00 67 1005.5
20260506111502 16 355 0.0 3.2 0.00 0.23 0.00 69 1005.7
20260506110001 16 286 0.0 1.6 0.00 0.23 0.00 68 1006.0
20260506104559 16 286 0.0 1.6 0.00 0.23 0.00 70 1006.2
20260506103059 16 286 0.0 1.6 0.00 0.23 0.00 68 1006.3
20260506101601 16 286 0.0 3.2 0.00 0.23 0.00 70 1006.4
20260506100114 16 286 0.0 1.6 0.00 0.23 0.00 70 1006.4
20260506094552 16 286 0.0 1.6 0.00 0.23 0.00 72 1006.5
20260506093051 16 286 0.0 3.2 0.00 0.23 0.00 70 1006.4
20260506091548 15 287 0.0 3.2 0.00 0.23 0.00 71 1006.4
20260506090048 15 284 0.0 3.2 0.00 0.23 0.00 71 1006.5
20260506084610 15 267 0.0 1.6 0.00 0.23 0.00 73 1006.4
20260506083044 15 115 0.0 0.0 0.00 0.23 0.00 74 1006.5
20260506081546 14 115 0.0 0.0 0.00 0.23 0.00 76 1006.6
20260506073041 13 115 0.0 0.0 0.00 0.23 0.00 83 1006.7
20260506071531 12 117 0.0 1.6 0.00 0.23 0.00 85 1006.7
20260506061522 10 128 0.0 1.6 0.00 0.23 0.00 92 1006.5
20260506044547 8 300 0.0 0.0 0.00 0.23 0.00 96 1006.9
20260506043015 7 279 0.0 0.0 0.00 0.23 0.00 96 1007.0
20260506041515 7 279 0.0 0.0 0.00 0.23 0.00 96 1007.0
20260506040014 7 279 0.0 0.0 0.00 0.23 0.00 96 1007.1
20260506034532 7 279 0.0 0.0 0.00 0.23 0.00 96 1007.2
20260506033011 7 279 0.0 0.0 0.00 0.23 0.00 95 1007.3
20260506031511 7 279 0.0 0.0 0.00 0.23 0.00 95 1007.4